User: anonymous
Location: Gipe Farm
(40.9466°N, 95.5370°W)
Time: 22:55:02
(UTC-05:00)
Language:

Cosmos 2082 Rocket - Orbit

View from above orbital plane
View from above orbital plane
View from above satellite
View from above satellite

Ground track
Ground track

The orbit data is extracted from the following two-line orbital elements,

1 20625U 90046B   14233.23177203 -.00000263  00000-0 -11201-3 0  7902
2 20625 071.0003 152.7907 0016156 239.7506 228.1944 14.14533893252044
Epoch (UTC): 21 August 2014 05:33:45
Eccentricity: 0.0016156
inclination: 71.0003°
perigee height: 832 km
apogee height: 855 km
right ascension of ascending node: 152.7907°
argument of perigee: 239.7506°
revolutions per day: 14.14533893
mean anomaly at epoch: 228.1944°
orbit number at epoch: 25204

The dashed part of the orbit path shows where the satellite is in the earth's shadow,  

DLR